Location: Buch
(50.1863°N, 11.0141°E)
Time: 21:14:34
(UTC+00:00)

Helios 1A Rocket - Pass Details

Date: 18 January 2020
Orbit: 565 x 586 km, 98.3° (Epoch: 16 February)

Event Time Altitude Azimuth Distance (km) Brightness Sun altitude
Rises 05:51:08 0° 9° (N) 2,801 6.3 -11.9°
Reaches altitude 10° 05:53:21 10° 3° (N) 1,901 5.4 -11.5°
Maximum altitude 05:57:16 45° 291° (WNW) 801 3.2 -10.9°
Drops below altitude 10° 06:01:11 10° 219° (SW) 1,898 5.4 -10.3°
Sets 06:03:24 0° 213° (SSW) 2,795 6.3 -10.0°
